Weather History for KBGD - October, 2013

Change the Weather History Date:

Friday, October 4, 2013

  Actual Average Record
Temperature  
Mean Temperature 69 °F 65 °F  
Max Temperature 87 °F 77 °F 96 °F (2007)
Min Temperature 51 °F 53 °F 37 °F (1999)
Degree Days  
Heating Degree Days 0 3  
Month to date heating degree days 0 12  
Since 1 July heating degree days 3 40  
Cooling Degree Days 4 3  
Month to date cooling degree days 33 14  
Year to date cooling degree days 2195 1799  
Growing Degree Days 22 (Base 50)    
Moisture  
Dew Point 40 °F    
Average Humidity 39    
Maximum Humidity 63    
Minimum Humidity 15    
Precipitation  
Precipitation 0.00 in 0.08 in 0.61 in (1984)
Month to date precipitation 0.00 0.32  
Year to date precipitation 13.82 18.71  
Snow  
Snow 0.00 in - 0.00 in (2013)
Month to date snowfall 0.0  
Since 1 July snowfall 0.0  
Since 1 September snowfall 0.0  
Snow Depth 0.00 in    
Sea Level Pressure  
Sea Level Pressure 29.73 in    
Wind  
Wind Speed 16 mph (SW)    
Max Wind Speed 25 mph    
Max Gust Speed 33 mph    
Visibility 10 miles    
Events      
T = Trace of Precipitation, MM = Missing Value Source: NWS Daily Summary

Daily Weather History Graph

Daily Weather History Graph

Search for Another Location

Airport or City:

Trip Planner

Search our weather history database for the weather conditions in past years. The results will help you decide how hot, cold, wet, or windy it might be!

Date:

Astronomy

Oct. 04, 2013 Rise Set
Actual Time 7:43 AM CDT 7:24 PM CDT
Civil Twilight 7:17 AM CDT 7:50 PM CDT
Nautical Twilight 6:48 AM CDT 8:19 PM CDT
Astronomical Twilight 6:18 AM CDT 8:49 PM CDT
Moon 7:20 AM CDT (10/4) 7:09 PM CDT (10/4)
Length of Visible Light 12h 32m
Length of Day
11h 41m
Waning Crescent, 0% of the Moon is Illuminated
Oct 4
Waning Crescent
Oct 4
New
Oct 11
First Quarter
Oct 18
Full
Oct 26
Last Quarter

Hourly Weather History & Observations

Time (CDT) Temp. Dew Point Humidity Pressure Visibility Wind Dir Wind Speed Gust Speed Precip Events Conditions
12:51 AM 73.0 °F 46.0 °F 38% 29.60 in 10.0 mi South 15.0 mph - N/A   Clear
1:51 AM 73.0 °F 48.9 °F 42% 29.59 in 10.0 mi South 13.8 mph 21.9 mph N/A   Clear
2:51 AM 71.1 °F 45.0 °F 39% 29.60 in 10.0 mi South 12.7 mph 20.7 mph N/A   Clear
3:51 AM 68.0 °F 42.1 °F 39% 29.60 in 10.0 mi South 15.0 mph 24.2 mph N/A   Clear
4:51 AM 68.0 °F 42.1 °F 39% 29.60 in 10.0 mi South 15.0 mph 26.5 mph N/A   Clear
5:51 AM 68.0 °F 55.0 °F 63% 29.62 in 10.0 mi SSW 15.0 mph 29.9 mph N/A   Clear
6:51 AM 66.9 °F 53.1 °F 61% 29.64 in 10.0 mi SSW 13.8 mph 23.0 mph N/A   Clear
7:51 AM 66.0 °F 52.0 °F 60% 29.66 in 10.0 mi SSW 15.0 mph 25.3 mph N/A   Clear
8:51 AM 68.0 °F 55.9 °F 65% 29.70 in 10.0 mi SSW 16.1 mph 27.6 mph N/A   Clear
9:51 AM 72.0 °F 54.0 °F 53% 29.71 in 10.0 mi SW 18.4 mph 28.8 mph N/A   Clear
10:51 AM 77.0 °F 39.9 °F 26% 29.71 in 10.0 mi SW 17.3 mph 26.5 mph N/A   Clear
11:51 AM 80.1 °F 36.0 °F 20% 29.71 in 10.0 mi WSW 18.4 mph 24.2 mph N/A   Clear
12:51 PM 82.9 °F 34.0 °F 17% 29.72 in 10.0 mi WSW 15.0 mph 24.2 mph N/A   Clear
1:51 PM 84.9 °F 33.1 °F 16% 29.70 in 10.0 mi West 15.0 mph 21.9 mph N/A   Clear
2:51 PM 84.9 °F 32.0 °F 15% 29.70 in 10.0 mi WSW 18.4 mph 24.2 mph N/A   Clear
3:51 PM 86.0 °F 33.1 °F 15% 29.70 in 10.0 mi WSW 12.7 mph 20.7 mph N/A   Clear
4:51 PM 86.0 °F 34.0 °F 16% 29.70 in 10.0 mi SW 11.5 mph - N/A   Clear
5:51 PM 84.9 °F 32.0 °F 15% 29.72 in 10.0 mi WSW 15.0 mph 21.9 mph N/A   Clear
6:51 PM 75.9 °F 44.1 °F 32% 29.77 in 10.0 mi NNE 15.0 mph - N/A   Clear
6:58 PM 75.2 °F 42.8 °F 31% 29.88 in 10.0 mi NNE 15.0 mph - N/A   Clear
7:51 PM 70.0 °F 36.0 °F 29% 29.83 in 10.0 mi NNE 16.1 mph 23.0 mph N/A   Clear
8:51 PM 64.9 °F 32.0 °F 29% 29.88 in 10.0 mi NNE 19.6 mph 26.5 mph N/A   Clear
9:51 PM 60.1 °F 28.9 °F 31% 29.96 in 10.0 mi NNE 17.3 mph 27.6 mph N/A   Clear
10:51 PM 57.0 °F 28.9 °F 34% 29.99 in 10.0 mi NNE 21.9 mph 28.8 mph N/A   Clear
11:51 PM 54.0 °F 30.9 °F 41% 30.02 in 10.0 mi NNE 13.8 mph - N/A   Clear